Regional Weather Roundup
Issued by NWS Cleveland, OH

Home | Current Version | Previous Version | Graphics & Text | Print | Product List | Glossary On
Versions: 1 2 3 4 5 6 7 8 9 10 11 12 13 14 15 16 17 18 19 20 21 22 23 24 25 26 27 28 29 30 31 32 33 34 35 36 37 38 39 40 41 42 43 44 45 46 47 48 49 50
989
ASUS41 KCLE 191310
RWRCLE
OHIO REGIONAL WEATHER ROUNDUP
NATIONAL WEATHER SERVICE CLEVELAND, OH
800 AM EST SUN NOV 19 2017

NOTE: "FAIR" INDICATES FEW OR NO CLOUDS BELOW 12,000 FEET WITH NO
SIGNIFICANT WEATHER AND/OR OBSTRUCTIONS TO VISIBILITY.

OHZ001>008-015>018-024>027-034-035-043-044-191400-
   NORTHWEST OHIO

CITY           SKY/WX    TMP DP  RH WIND       PRES   REMARKS
DEFIANCE       CLOUDY    36  32  85 NW3       29.86R
FINDLAY        CLOUDY    38  30  73 NW15      29.84R
TOLEDO EXPRESS CLOUDY    37  29  72 W10       29.84R
TOLEDO EXEC    CLOUDY    36  27  69 W10       29.84R
LIMA           NOT AVBL
$$

OHZ009>014-019>023-028>033-038-089-191400-
   NORTHEAST OHIO

CITY           SKY/WX    TMP DP  RH WIND       PRES   REMARKS
CLE-HOPKINS    CLOUDY    37  33  85 W10       29.80R
CLE-LAKEFRONT  CLOUDY    41  30  65 NW23G31   29.76R
CUY CO. ARPT   CLOUDY    39  28  65 NW16G23   29.76R
LORAIN-ELYRIA  CLOUDY    37  25  61 NW17G29   29.80R
ASHTABULA      CLOUDY    38  29  70 NW14G23   29.71R
AKRON-CANTON   FLURRIES  37  30  75 W10       29.76R
WOOSTER        MIX PCPN  35  29  78 NW15G28   29.79R WCI  25
MANSFIELD      CLOUDY    35  26  69 NW15G26   29.82R WCI  25
YOUNGSTOWN     CLOUDY    37  28  70 NW13      29.71R
$$

OHZ042-051>053-060>062-070>072-077>081-191400-
  SOUTHWEST OHIO

CITY           SKY/WX    TMP DP  RH WIND       PRES   REMARKS
CINC-COVINGTON CLOUDY    38  32  79 W7        29.95R
CINC-LUNKEN    CLOUDY    40  30  67 W14       29.97R
HAMILTON       CLOUDY    39  30  70 W8        29.96R
DAYTON         CLOUDY    37  33  85 W14       29.91R
WRIGHT-PAT AFB CLOUDY    38  32  79 W12G21    29.90R
DAYTON GENERAL CLOUDY    38  30  73 W9        29.91R
WILMINGTON     CLOUDY    37  32  82 W13       29.91R
$$

OHZ036-037-039>041-045>050-054>059-063>069-073>076-082>088-191400-
  CENTRAL AND SOUTHEAST OHIO

CITY           SKY/WX    TMP DP  RH WIND       PRES   REMARKS
COLUMBUS       CLOUDY    39  33  79 W9        29.86R
OSU AIRPORT    CLOUDY    38  32  79 W12       29.87R
BOLTON FIELD   LGT RAIN  37  34  87 NW8       29.88R
RICKENBACK AFB LGT RAIN  38  34  86 NW15G21   29.88R
NEWARK         CLOUDY    39  26  59 NW13      29.85R
MARION         CLOUDY    37  31  78 NW12G23   29.84R
LANCASTER      CLOUDY    38  32  79 W9        29.87R
ZANESVILLE     CLOUDY    39  30  70 W10       29.83R
NEW PHILLY     NOT AVBL
$$




USA.gov is the U.S. government's official web portal to all federal, state and local government web resources and services.